Telfer, Australia

12:44 AM AWST on January 24, 2018 (GMT +0800)
Telfer

Weather History for YTEF - September, 2013

Change the Weather History Date:

Wednesday, September 4, 2013

  Actual Average Record
Temperature  
Mean Temperature 82 °F -  
Max Temperature 99 °F - - ()
Min Temperature 65 °F - - ()
Cooling Degree Days 17    
Growing Degree Days 32 (Base 50)    
Moisture  
Dew Point 42 °F    
Average Humidity 21    
Maximum Humidity 44    
Minimum Humidity 6    
Precipitation  
Precipitation 0.00 in - - ()
Sea Level Pressure  
Sea Level Pressure 29.98 in    
Wind  
Wind Speed 6 mph ()    
Max Wind Speed 17 mph    
Max Gust Speed -    
T = Trace of Precipitation, MM = Missing Value Source: Averaged Metar Reports

Daily Weather History Graph

Daily Weather History Graph

Search for Another Location

Airport or City:

Trip Planner

Search our weather history database for the weather conditions in past years. The results will help you decide how hot, cold, wet, or windy it might be!

Date:

Astronomy

Sep. 04, 2013 Rise Set
Actual Time 5:58 AM AWST 5:42 PM AWST
Civil Twilight 5:35 AM AWST 6:04 PM AWST
Nautical Twilight 5:10 AM AWST 6:30 PM AWST
Astronomical Twilight 4:44 AM AWST 6:56 PM AWST
Moon 4:47 AM AWST (9/4) 4:41 PM AWST (9/4)
Length of Visible Light 12h 28m
Length of Day
11h 44m
Waning Crescent, 2% of the Moon is Illuminated
Sep 4
Waning Crescent
Sep 5
New
Sep 13
First Quarter
Sep 19
Full
Sep 27
Last Quarter

Hourly Weather History & Observations

Time (AWST) Temp. Dew Point Humidity Pressure Visibility Wind Dir Wind Speed Gust Speed Precip Events Conditions
12:00 AM 78 °F 45 °F 21% 29.97 in - NW 4.6 mph - -  
12:00 AM 78.8 °F 44.6 °F 30% 30.01 in - NW 4.6 mph - N/A   Unknown
1:00 AM 78.8 °F 44.6 °F 30% 29.98 in - West 6.9 mph - N/A   Unknown
2:00 AM 75 °F 46 °F 24% 29.95 in - West 3.5 mph - -  
2:00 AM 75.2 °F 46.4 °F 36% 29.98 in - West 3.5 mph - N/A   Unknown
3:00 AM 74 °F 38 °F 17% 29.95 in - East 5.8 mph - -  
3:00 AM 75.2 °F 37.4 °F 25% 29.98 in - East 5.8 mph - N/A   Unknown
4:00 AM 71.6 °F 46.4 °F 41% 29.98 in - Calm Calm - N/A   Unknown
5:00 AM 71.6 °F 44.6 °F 38% 29.98 in - Calm Calm - N/A   Unknown
6:00 AM 68 °F 43 °F 29% 29.98 in - SSW 3.5 mph - -  
6:00 AM 68.0 °F 42.8 °F 40% 30.01 in - SSW 3.5 mph - N/A   Unknown
7:00 AM 73.4 °F 50.0 °F 44% 30.04 in - ESE 4.6 mph - N/A   Unknown
8:00 AM 81 °F 47 °F 21% 30.02 in - SSE 9.2 mph - -  
8:00 AM 80.6 °F 48.2 °F 32% 30.04 in - SSE 9.2 mph - N/A   Unknown
9:00 AM 87 °F 47 °F 16% 30.03 in - SE 8.1 mph - -  
9:00 AM 87.8 °F 46.4 °F 24% 30.06 in - SE 8.1 mph - N/A   Unknown
10:00 AM 93.2 °F 39.2 °F 15% 30.04 in - ENE 8.1 mph - N/A   Unknown
11:00 AM 93.2 °F 42.8 °F 17% 30.04 in - ENE 10.4 mph - N/A   Unknown
12:00 PM 96 °F 37 °F 6% 29.98 in - NNE 11.5 mph - -  
12:00 PM 96.8 °F 37.4 °F 13% 30.01 in - NNE 11.5 mph - N/A   Unknown
1:00 PM 96.8 °F 32.0 °F 10% 29.98 in - NE 6.9 mph - N/A   Unknown
2:00 PM 97 °F 36 °F 6% 29.92 in - ENE 9.2 mph - -  
2:00 PM 96.8 °F 35.6 °F 12% 29.95 in - ENE 9.2 mph - N/A   Unknown
3:00 PM 97 °F 36 °F 6% 29.91 in - ESE 9.2 mph - -  
3:00 PM 96.8 °F 35.6 °F 12% 29.95 in - ESE 9.2 mph - N/A   Unknown
4:00 PM 96.8 °F 35.6 °F 12% 29.95 in - East 10.4 mph - N/A   Unknown
5:00 PM 95 °F 36 °F 6% 29.91 in - NE 9.2 mph - -  
5:00 PM 95.0 °F 37.4 °F 13% 29.95 in - NE 9.2 mph - N/A   Unknown
6:00 PM 90 °F 41 °F 10% 29.93 in - East 4.6 mph - -  
6:00 PM 89.6 °F 41.0 °F 18% 29.95 in - East 4.6 mph - N/A   Unknown
7:00 PM 86.0 °F 42.8 °F 22% 29.98 in - ESE 4.6 mph - N/A   Unknown
8:00 PM 84 °F 41 °F 13% 29.98 in - ESE 5.8 mph - -  
8:00 PM 84.2 °F 41.0 °F 22% 30.01 in - ESE 5.8 mph - N/A   Unknown
9:00 PM 83 °F 41 °F 13% 29.99 in - SSE 6.9 mph - -  
9:00 PM 82.4 °F 41.0 °F 23% 30.01 in - SSE 6.9 mph - N/A   Unknown
10:00 PM 82.4 °F 41.0 °F 23% 30.01 in - SSE 5.8 mph - N/A   Unknown
11:00 PM 74 °F 46 °F 26% 29.98 in - SSE 4.6 mph - -  
11:00 PM 73.4 °F 46.4 °F 38% 30.01 in - SSE 4.6 mph - N/A   Unknown
11:55 PM 80.6 °F 44.6 °F 28% 30.01 in - South 17.3 mph - N/A   Unknown